Time,TemperatureF,DewpointF,PressureIn,WindDirection,WindDirectionDegrees,WindSpeedMPH,WindSpeedGustMPH,Humidity,HourlyPrecipIn,Conditions,Clouds,dailyrainin,SoftwareType,DateUTC
2013-09-20 00:00:00,48.9,43.3,30.08,North,32767,2.0,17.0,81,0.00,,,0.22,Wunderground v.1.15,2013-09-20 05:00:00,
2013-09-20 00:10:00,48.5,43.3,30.08,North,32767,3.0,17.0,82,0.00,,,0.00,Wunderground v.1.15,2013-09-20 05:10:00,
2013-09-20 00:20:00,49.0,43.4,30.08,North,32767,2.0,17.0,81,0.00,,,0.00,Wunderground v.1.15,2013-09-20 05:20:00,
2013-09-20 00:30:00,48.9,43.3,30.09,North,32767,3.0,3.0,81,0.00,,,0.00,Wunderground v.1.15,2013-09-20 05:30:00,
2013-09-20 00:40:00,49.0,43.4,30.09,North,32767,3.0,17.0,81,0.00,,,0.00,Wunderground v.1.15,2013-09-20 05:40:00,
2013-09-20 00:50:00,49.3,43.4,30.10,North,32767,4.0,17.0,80,0.00,,,0.00,Wunderground v.1.15,2013-09-20 05:50:00,
2013-09-20 01:00:00,49.3,43.4,30.10,North,32767,5.0,5.0,80,0.00,,,0.00,Wunderground v.1.15,2013-09-20 06:00:00,
2013-09-20 01:20:00,48.9,43.3,30.11,North,32767,5.0,17.0,81,0.00,,,0.00,Wunderground v.1.15,2013-09-20 06:20:00,
2013-09-20 01:30:00,48.3,43.1,30.11,North,32767,2.0,17.0,82,0.00,,,0.00,Wunderground v.1.15,2013-09-20 06:30:00,
2013-09-20 01:40:00,48.0,42.8,30.11,North,32767,4.0,17.0,82,0.00,,,0.00,Wunderground v.1.15,2013-09-20 06:40:00,
2013-09-20 01:50:00,47.3,42.4,30.11,North,32767,3.0,17.0,83,0.00,,,0.00,Wunderground v.1.15,2013-09-20 06:50:00,
2013-09-20 02:00:00,47.6,42.7,30.11,North,32767,2.0,2.0,83,0.00,,,0.00,Wunderground v.1.15,2013-09-20 07:00:00,
2013-09-20 02:10:00,47.2,42.3,30.11,North,32767,1.0,17.0,83,0.00,,,0.00,Wunderground v.1.15,2013-09-20 07:10:00,
2013-09-20 02:20:00,46.8,42.2,30.11,North,32767,3.0,17.0,84,0.00,,,0.00,Wunderground v.1.15,2013-09-20 07:20:00,
2013-09-20 02:30:00,46.4,42.1,30.11,North,32767,3.0,3.0,85,0.00,,,0.00,Wunderground v.1.15,2013-09-20 07:30:00,
2013-09-20 02:40:00,45.9,41.9,30.11,North,32767,2.0,17.0,86,0.00,,,0.00,Wunderground v.1.15,2013-09-20 07:40:00,
2013-09-20 02:50:00,45.1,41.5,30.11,North,32767,2.0,17.0,87,0.00,,,0.00,Wunderground v.1.15,2013-09-20 07:50:00,
2013-09-20 03:00:00,44.8,41.5,30.12,North,32767,2.0,2.0,88,0.00,,,0.00,Wunderground v.1.15,2013-09-20 08:00:00,
2013-09-20 03:10:00,44.5,41.2,30.11,North,32767,2.0,2.0,88,0.00,,,0.00,Wunderground v.1.15,2013-09-20 08:10:00,
2013-09-20 03:20:00,44.1,40.8,30.11,North,32767,2.0,2.0,88,0.00,,,0.00,Wunderground v.1.15,2013-09-20 08:20:00,
2013-09-20 03:30:00,44.1,41.1,30.11,North,32767,4.0,5.0,89,0.00,,,0.00,Wunderground v.1.15,2013-09-20 08:30:00,
2013-09-20 03:40:00,44.6,41.3,30.11,North,32767,5.0,5.0,88,0.00,,,0.00,Wunderground v.1.15,2013-09-20 08:40:00,
2013-09-20 03:50:00,45.0,41.4,30.10,North,32767,4.0,4.0,87,0.00,,,0.00,Wunderground v.1.15,2013-09-20 08:50:00,
2013-09-20 04:00:00,44.5,40.9,30.10,North,32767,3.0,3.0,87,0.00,,,0.00,Wunderground v.1.15,2013-09-20 09:00:00,
2013-09-20 04:10:00,43.1,39.8,30.10,North,32767,2.0,4.0,88,0.00,,,0.00,Wunderground v.1.15,2013-09-20 09:10:00,
2013-09-20 04:20:00,42.3,39.6,30.10,North,32767,2.0,2.0,90,0.00,,,0.00,Wunderground v.1.15,2013-09-20 09:20:00,
2013-09-20 04:30:00,42.0,39.6,30.10,North,32767,2.0,2.0,91,0.00,,,0.00,Wunderground v.1.15,2013-09-20 09:30:00,
2013-09-20 04:40:00,42.1,39.9,30.10,North,32767,3.0,4.0,92,0.00,,,0.00,Wunderground v.1.15,2013-09-20 09:40:00,
2013-09-20 04:50:00,43.5,40.8,30.11,North,32767,5.0,6.0,90,0.00,,,0.00,Wunderground v.1.15,2013-09-20 09:50:00,
2013-09-20 05:00:00,44.9,41.3,30.11,North,32767,5.0,6.0,87,0.00,,,0.00,Wunderground v.1.15,2013-09-20 10:00:00,
2013-09-20 05:10:00,44.8,41.2,30.11,North,32767,6.0,6.0,87,0.00,,,0.00,Wunderground v.1.15,2013-09-20 10:10:00,
2013-09-20 05:20:00,44.6,40.7,30.11,North,32767,5.0,7.0,86,0.00,,,0.00,Wunderground v.1.15,2013-09-20 10:20:00,
2013-09-20 05:30:00,44.4,40.5,30.10,North,32767,5.0,6.0,86,0.00,,,0.00,Wunderground v.1.15,2013-09-20 10:30:00,
2013-09-20 05:40:00,43.9,40.3,30.10,North,32767,6.0,6.0,87,0.00,,,0.00,Wunderground v.1.15,2013-09-20 10:40:00,
2013-09-20 05:50:00,43.9,40.3,30.11,North,32767,5.0,5.0,87,0.00,,,0.00,Wunderground v.1.15,2013-09-20 10:50:00,
2013-09-20 06:00:00,43.7,40.1,30.11,North,32767,5.0,5.0,87,0.00,,,0.00,Wunderground v.1.15,2013-09-20 11:00:00,
2013-09-20 06:10:00,43.5,40.2,30.11,North,32767,5.0,5.0,88,0.00,,,0.00,Wunderground v.1.15,2013-09-20 11:10:00,
2013-09-20 06:20:00,43.6,40.0,30.12,North,32767,4.0,4.0,87,0.00,,,0.00,Wunderground v.1.15,2013-09-20 11:20:00,
2013-09-20 06:30:00,43.1,39.8,30.13,North,32767,4.0,4.0,88,0.00,,,0.00,Wunderground v.1.15,2013-09-20 11:30:00,
2013-09-20 06:40:00,42.5,39.5,30.13,North,32767,4.0,4.0,89,0.00,,,0.00,Wunderground v.1.15,2013-09-20 11:40:00,
2013-09-20 06:50:00,42.5,39.5,30.13,North,32767,5.0,5.0,89,0.00,,,0.00,Wunderground v.1.15,2013-09-20 11:50:00,
2013-09-20 07:00:00,42.6,39.3,30.13,North,32767,3.0,3.0,88,0.00,,,0.00,Wunderground v.1.15,2013-09-20 12:00:00,
2013-09-20 07:10:00,42.7,39.4,30.14,North,32767,2.0,4.0,88,0.00,,,0.00,Wunderground v.1.15,2013-09-20 12:10:00,
2013-09-20 07:20:00,43.0,39.4,30.14,North,32767,3.0,3.0,87,0.00,,,0.00,Wunderground v.1.15,2013-09-20 12:20:00,
2013-09-20 07:30:00,42.7,39.4,30.14,North,32767,2.0,4.0,88,0.00,,,0.00,Wunderground v.1.15,2013-09-20 12:30:00,
2013-09-20 07:40:00,43.7,39.8,30.14,North,32767,1.0,4.0,86,0.00,,,0.00,Wunderground v.1.15,2013-09-20 12:40:00,
2013-09-20 07:50:00,44.2,39.4,30.15,North,32767,3.0,4.0,83,0.00,,,0.00,Wunderground v.1.15,2013-09-20 12:50:00,
2013-09-20 08:00:00,44.2,40.0,30.15,North,32767,2.0,2.0,85,0.00,,,0.00,Wunderground v.1.15,2013-09-20 13:00:00,
2013-09-20 08:10:00,44.9,40.7,30.15,North,32767,1.0,4.0,85,0.00,,,0.00,Wunderground v.1.15,2013-09-20 13:10:00,
2013-09-20 08:20:00,45.5,40.9,30.15,North,32767,1.0,4.0,84,0.00,,,0.00,Wunderground v.1.15,2013-09-20 13:20:00,
2013-09-20 08:30:00,46.1,41.8,30.15,North,32767,1.0,4.0,85,0.00,,,0.00,Wunderground v.1.15,2013-09-20 13:30:00,
2013-09-20 08:40:00,46.7,42.1,30.15,North,32767,1.0,4.0,84,0.00,,,0.00,Wunderground v.1.15,2013-09-20 13:40:00,
2013-09-20 08:50:00,47.7,43.1,30.15,North,32767,2.0,2.0,84,0.00,,,0.00,Wunderground v.1.15,2013-09-20 13:50:00,
2013-09-20 09:00:00,49.1,44.5,30.15,North,32767,1.0,4.0,84,0.00,,,0.00,Wunderground v.1.15,2013-09-20 14:00:00,
2013-09-20 09:10:00,50.5,44.2,30.15,North,32767,2.0,4.0,79,0.00,,,0.00,Wunderground v.1.15,2013-09-20 14:10:00,
2013-09-20 09:20:00,52.0,45.4,30.15,North,32767,3.0,4.0,78,0.00,,,0.00,Wunderground v.1.15,2013-09-20 14:20:00,
2013-09-20 09:30:00,52.7,44.6,30.16,North,32767,4.0,4.0,74,0.00,,,0.00,Wunderground v.1.15,2013-09-20 14:30:00,
2013-09-20 09:40:00,53.5,45.8,30.15,North,32767,5.0,6.0,75,0.00,,,0.00,Wunderground v.1.15,2013-09-20 14:40:00,
2013-09-20 09:50:00,54.2,43.9,30.15,North,32767,5.0,7.0,68,0.00,,,0.00,Wunderground v.1.15,2013-09-20 14:50:00,
2013-09-20 10:00:00,54.5,44.2,30.15,North,32767,7.0,7.0,68,0.00,,,0.00,Wunderground v.1.15,2013-09-20 15:00:00,
2013-09-20 10:10:00,55.4,44.2,30.15,North,32767,5.0,6.0,66,0.00,,,0.00,Wunderground v.1.15,2013-09-20 15:10:00,
2013-09-20 10:20:00,56.5,44.9,30.16,North,32767,6.0,6.0,65,0.00,,,0.00,Wunderground v.1.15,2013-09-20 15:20:00,
2013-09-20 10:30:00,56.9,43.2,30.16,North,32767,6.0,6.0,60,0.00,,,0.00,Wunderground v.1.15,2013-09-20 15:30:00,
2013-09-20 10:40:00,57.8,44.4,30.16,North,32767,5.0,6.0,61,0.00,,,0.00,Wunderground v.1.15,2013-09-20 15:40:00,
2013-09-20 10:50:00,58.6,44.3,30.15,North,32767,5.0,6.0,59,0.00,,,0.00,Wunderground v.1.15,2013-09-20 15:50:00,
2013-09-20 11:00:00,59.0,45.1,30.16,North,32767,5.0,5.0,60,0.00,,,0.00,Wunderground v.1.15,2013-09-20 16:00:00,
2013-09-20 11:10:00,59.9,43.7,30.15,North,32767,5.0,5.0,55,0.00,,,0.00,Wunderground v.1.15,2013-09-20 16:10:00,
2013-09-20 11:20:00,60.4,44.6,30.15,North,32767,5.0,7.0,56,0.00,,,0.00,Wunderground v.1.15,2013-09-20 16:20:00,
2013-09-20 11:30:00,61.0,45.2,30.15,North,32767,5.0,5.0,56,0.00,,,0.00,Wunderground v.1.15,2013-09-20 16:30:00,
2013-09-20 11:40:00,61.7,46.3,30.14,North,32767,5.0,5.0,57,0.00,,,0.00,Wunderground v.1.15,2013-09-20 16:40:00,
2013-09-20 11:50:00,62.5,45.6,30.14,North,32767,4.0,4.0,54,0.00,,,0.00,Wunderground v.1.15,2013-09-20 16:50:00,
2013-09-20 12:00:00,63.0,46.1,30.14,North,32767,3.0,4.0,54,0.00,,,0.00,Wunderground v.1.15,2013-09-20 17:00:00,
2013-09-20 12:10:00,63.6,47.6,30.13,North,32767,4.0,4.0,56,0.00,,,0.00,Wunderground v.1.15,2013-09-20 17:10:00,
2013-09-20 12:20:00,64.1,45.6,30.13,North,32767,4.0,4.0,51,0.00,,,0.00,Wunderground v.1.15,2013-09-20 17:20:00,
2013-09-20 12:30:00,64.7,47.7,30.12,North,32767,4.0,4.0,54,0.00,,,0.00,Wunderground v.1.15,2013-09-20 17:30:00,
2013-09-20 12:40:00,65.1,46.5,30.11,North,32767,4.0,4.0,51,0.00,,,0.00,Wunderground v.1.15,2013-09-20 17:40:00,
2013-09-20 12:50:00,65.5,46.9,30.11,North,32767,4.0,10.0,51,0.00,,,0.00,Wunderground v.1.15,2013-09-20 17:50:00,
2013-09-20 13:00:00,65.1,46.0,30.10,North,32767,6.0,6.0,50,0.00,,,0.00,Wunderground v.1.15,2013-09-20 18:00:00,
2013-09-20 13:10:00,66.2,45.9,30.10,North,32767,4.0,5.0,48,0.00,,,0.00,Wunderground v.1.15,2013-09-20 18:10:00,
2013-09-20 13:20:00,66.5,45.1,30.10,North,32767,5.0,5.0,46,0.00,,,0.00,Wunderground v.1.15,2013-09-20 18:20:00,
2013-09-20 13:30:00,67.0,44.4,30.10,North,32767,3.0,5.0,44,0.00,,,0.00,Wunderground v.1.15,2013-09-20 18:30:00,
2013-09-20 13:40:00,67.9,45.2,30.09,North,32767,3.0,4.0,44,0.00,,,0.00,Wunderground v.1.15,2013-09-20 18:40:00,
2013-09-20 13:50:00,67.9,46.3,30.09,North,32767,3.0,7.0,46,0.00,,,0.00,Wunderground v.1.15,2013-09-20 18:50:00,
2013-09-20 14:00:00,68.9,46.7,30.08,North,32767,2.0,4.0,45,0.00,,,0.00,Wunderground v.1.15,2013-09-20 19:00:00,
2013-09-20 14:10:00,68.7,44.7,30.07,North,32767,3.0,4.0,42,0.00,,,0.00,Wunderground v.1.15,2013-09-20 19:10:00,
2013-09-20 14:20:00,69.2,45.1,30.07,North,32767,3.0,4.0,42,0.00,,,0.00,Wunderground v.1.15,2013-09-20 19:20:00,
2013-09-20 14:30:00,69.9,45.8,30.06,North,32767,4.0,4.0,42,0.00,,,0.00,Wunderground v.1.15,2013-09-20 19:30:00,
2013-09-20 14:40:00,70.1,45.3,30.05,North,32767,5.0,5.0,41,0.00,,,0.00,Wunderground v.1.15,2013-09-20 19:40:00,
2013-09-20 14:50:00,70.0,45.2,30.05,North,32767,3.0,6.0,41,0.00,,,0.00,Wunderground v.1.15,2013-09-20 19:50:00,
2013-09-20 15:00:00,70.5,45.7,30.05,North,32767,4.0,9.0,41,0.00,,,0.00,Wunderground v.1.15,2013-09-20 20:00:00,
2013-09-20 15:10:00,70.3,44.8,30.05,North,32767,5.0,6.0,40,0.00,,,0.00,Wunderground v.1.15,2013-09-20 20:10:00,
2013-09-20 15:20:00,70.6,45.1,30.04,North,32767,6.0,6.0,40,0.00,,,0.00,Wunderground v.1.15,2013-09-20 20:20:00,
2013-09-20 15:30:00,70.9,45.4,30.04,North,32767,6.0,6.0,40,0.00,,,0.00,Wunderground v.1.15,2013-09-20 20:30:00,
2013-09-20 15:40:00,71.3,45.1,30.03,North,32767,4.0,4.0,39,0.00,,,0.00,Wunderground v.1.15,2013-09-20 20:40:00,
2013-09-20 15:50:00,71.9,45.6,30.03,North,32767,5.0,5.0,39,0.00,,,0.00,Wunderground v.1.15,2013-09-20 20:50:00,
2013-09-20 16:00:00,72.0,45.0,30.03,North,32767,4.0,4.0,38,0.00,,,0.00,Wunderground v.1.15,2013-09-20 21:00:00,
2013-09-20 16:10:00,72.9,45.8,30.02,North,32767,3.0,9.0,38,0.00,,,0.00,Wunderground v.1.15,2013-09-20 21:10:00,
2013-09-20 16:20:00,72.8,44.3,30.02,North,32767,5.0,5.0,36,0.00,,,0.00,Wunderground v.1.15,2013-09-20 21:20:00,
2013-09-20 16:30:00,72.4,44.6,30.02,North,32767,3.0,4.0,37,0.00,,,0.00,Wunderground v.1.15,2013-09-20 21:30:00,
2013-09-20 16:40:00,71.9,44.9,30.02,North,32767,5.0,5.0,38,0.00,,,0.00,Wunderground v.1.15,2013-09-20 21:40:00,
2013-09-20 16:50:00,72.6,45.5,30.02,North,32767,3.0,4.0,38,0.00,,,0.00,Wunderground v.1.15,2013-09-20 21:50:00,
2013-09-20 17:00:00,73.1,46.0,30.01,North,32767,3.0,5.0,38,0.00,,,0.00,Wunderground v.1.15,2013-09-20 22:00:00,
2013-09-20 17:10:00,72.6,46.2,30.01,North,32767,4.0,4.0,39,0.00,,,0.00,Wunderground v.1.15,2013-09-20 22:10:00,
2013-09-20 17:20:00,73.1,46.7,30.00,North,32767,3.0,3.0,39,0.00,,,0.00,Wunderground v.1.15,2013-09-20 22:20:00,
2013-09-20 17:30:00,73.0,45.9,30.00,North,32767,5.0,5.0,38,0.00,,,0.00,Wunderground v.1.15,2013-09-20 22:30:00,
2013-09-20 17:40:00,73.1,45.3,30.00,North,32767,2.0,4.0,37,0.00,,,0.00,Wunderground v.1.15,2013-09-20 22:40:00,
2013-09-20 17:50:00,72.9,45.1,30.00,North,32767,3.0,3.0,37,0.00,,,0.00,Wunderground v.1.15,2013-09-20 22:50:00,
2013-09-20 18:00:00,72.9,45.8,29.99,North,32767,3.0,3.0,38,0.00,,,0.00,Wunderground v.1.15,2013-09-20 23:00:00,
2013-09-20 18:10:00,73.2,46.1,29.99,North,32767,3.0,3.0,38,0.00,,,0.00,Wunderground v.1.15,2013-09-20 23:10:00,
2013-09-20 18:20:00,73.0,45.9,29.99,North,32767,2.0,2.0,38,0.00,,,0.00,Wunderground v.1.15,2013-09-20 23:20:00,
2013-09-20 18:30:00,73.3,45.4,29.99,North,32767,1.0,1.0,37,0.00,,,0.00,Wunderground v.1.15,2013-09-20 23:30:00,
2013-09-20 18:40:00,73.2,45.4,29.98,North,32767,2.0,2.0,37,0.00,,,0.00,Wunderground v.1.15,2013-09-20 23:40:00,
2013-09-20 18:50:00,72.7,45.6,29.98,North,32767,2.0,8.0,38,0.00,,,0.00,Wunderground v.1.15,2013-09-20 23:50:00,
2013-09-20 19:00:00,72.4,46.7,29.98,North,32767,2.0,2.0,40,0.00,,,0.00,Wunderground v.1.15,2013-09-21 00:00:00,
2013-09-20 19:10:00,72.3,46.6,29.98,North,32767,1.0,1.0,40,0.00,,,0.00,Wunderground v.1.15,2013-09-21 00:10:00,
2013-09-20 19:20:00,72.4,47.4,29.98,North,32767,0.0,8.0,41,0.00,,,0.00,Wunderground v.1.15,2013-09-21 00:20:00,
2013-09-20 19:30:00,71.4,46.5,29.97,North,32767,0.0,8.0,41,0.00,,,0.00,Wunderground v.1.15,2013-09-21 00:30:00,
2013-09-20 19:40:00,69.3,46.4,29.97,North,32767,0.0,8.0,44,0.00,,,0.00,Wunderground v.1.15,2013-09-21 00:40:00,
2013-09-20 19:50:00,68.1,45.4,29.97,North,32767,0.0,8.0,44,0.00,,,0.00,Wunderground v.1.15,2013-09-21 00:50:00,
2013-09-20 20:00:00,67.5,45.4,29.97,North,32767,0.0,8.0,45,0.00,,,0.00,Wunderground v.1.15,2013-09-21 01:00:00,
2013-09-20 20:10:00,66.7,45.3,29.97,North,32767,0.0,8.0,46,0.00,,,0.00,Wunderground v.1.15,2013-09-21 01:10:00,
2013-09-20 20:20:00,65.9,46.2,29.97,North,32767,2.0,8.0,49,0.00,,,0.00,Wunderground v.1.15,2013-09-21 01:20:00,
2013-09-20 20:30:00,66.0,45.2,29.97,North,32767,2.0,8.0,47,0.00,,,0.00,Wunderground v.1.15,2013-09-21 01:30:00,
2013-09-20 20:40:00,65.8,45.6,29.98,North,32767,3.0,8.0,48,0.00,,,0.00,Wunderground v.1.15,2013-09-21 01:40:00,
2013-09-20 20:50:00,65.1,45.5,29.98,North,32767,3.0,8.0,49,0.00,,,0.00,Wunderground v.1.15,2013-09-21 01:50:00,
2013-09-20 21:00:00,63.3,45.9,29.98,North,32767,2.0,8.0,53,0.00,,,0.00,Wunderground v.1.15,2013-09-21 02:00:00,
2013-09-20 21:10:00,59.9,46.4,29.98,North,32767,2.0,2.0,61,0.00,,,0.00,Wunderground v.1.15,2013-09-21 02:10:00,
2013-09-20 21:20:00,61.0,46.1,29.98,North,32767,0.0,8.0,58,0.00,,,0.00,Wunderground v.1.15,2013-09-21 02:20:00,
2013-09-20 21:30:00,62.0,45.6,29.98,North,32767,1.0,8.0,55,0.00,,,0.00,Wunderground v.1.15,2013-09-21 02:30:00,
2013-09-20 21:40:00,61.6,45.7,29.99,North,32767,1.0,1.0,56,0.00,,,0.00,Wunderground v.1.15,2013-09-21 02:40:00,
2013-09-20 21:50:00,60.5,45.6,29.99,North,32767,1.0,8.0,58,0.00,,,0.00,Wunderground v.1.15,2013-09-21 02:50:00,
2013-09-20 22:00:00,60.6,46.2,29.99,North,32767,1.0,8.0,59,0.00,,,0.00,Wunderground v.1.15,2013-09-21 03:00:00,
2013-09-20 22:10:00,61.1,46.7,29.99,North,32767,2.0,2.0,59,0.00,,,0.00,Wunderground v.1.15,2013-09-21 03:10:00,
2013-09-20 22:20:00,61.1,46.7,29.99,North,32767,2.0,8.0,59,0.00,,,0.00,Wunderground v.1.15,2013-09-21 03:20:00,
2013-09-20 22:30:00,60.8,46.4,29.99,North,32767,2.0,2.0,59,0.00,,,0.00,Wunderground v.1.15,2013-09-21 03:30:00,
2013-09-20 22:40:00,60.1,46.2,29.99,North,32767,1.0,8.0,60,0.00,,,0.00,Wunderground v.1.15,2013-09-21 03:40:00,
2013-09-20 22:50:00,59.6,46.6,29.99,North,32767,1.0,8.0,62,0.00,,,0.00,Wunderground v.1.15,2013-09-21 03:50:00,
2013-09-20 23:00:00,59.2,46.6,29.99,North,32767,2.0,8.0,63,0.00,,,0.00,Wunderground v.1.15,2013-09-21 04:00:00,
2013-09-20 23:10:00,58.0,46.3,29.99,North,32767,2.0,8.0,65,0.00,,,0.00,Wunderground v.1.15,2013-09-21 04:10:00,
2013-09-20 23:20:00,57.7,46.4,29.99,North,32767,2.0,2.0,66,0.00,,,0.00,Wunderground v.1.15,2013-09-21 04:20:00,
2013-09-20 23:30:00,57.4,46.1,29.99,North,32767,1.0,8.0,66,0.00,,,0.00,Wunderground v.1.15,2013-09-21 04:30:00,
2013-09-20 23:40:00,56.7,45.9,29.99,North,32767,1.0,8.0,67,0.00,,,0.00,Wunderground v.1.15,2013-09-21 04:40:00,
2013-09-20 23:50:00,56.1,46.1,30.00,North,32767,2.0,8.0,69,0.00,,,0.00,Wunderground v.1.15,2013-09-21 04:50:00,